Andover, NJ

3:55 PM EDT on July 21, 2017 (GMT -0400)
Andover

Weather History for K12N - January, 2013

Change the Weather History Date:

Saturday, January 26, 2013

  Actual Average (KFWN) Record (KFWN)
Temperature  
Mean Temperature 14 °F -  
Max Temperature 26 °F 37 °F 68 °F (1950)
Min Temperature 3 °F 16 °F -11 °F (1963)
Degree Days  
Heating Degree Days 50    
Moisture  
Dew Point 4 °F    
Average Humidity 64    
Maximum Humidity 88    
Minimum Humidity 41    
Precipitation  
Precipitation 3.31 in - - ()
Sea Level Pressure  
Sea Level Pressure 30.22 in    
Wind  
Wind Speed 2 mph (NNW)    
Max Wind Speed 9 mph    
Max Gust Speed 20 mph    
Averages and records for this station are not official NWS values.
T = Trace of Precipitation, MM = Missing Value Source: NWS Daily Summary

Daily Weather History Graph

Daily Weather History Graph

Search for Another Location

Airport or City:

Trip Planner

Search our weather history database for the weather conditions in past years. The results will help you decide how hot, cold, wet, or windy it might be!

Date:

Astronomy

Jan. 26, 2013 Rise Set
Actual Time 7:14 AM EST 5:08 PM EST
Civil Twilight 6:45 AM EST 5:38 PM EST
Nautical Twilight 6:12 AM EST 6:11 PM EST
Astronomical Twilight 5:39 AM EST 6:44 PM EST
Moon 5:01 PM EST (1/26) 6:30 AM EST (1/26)
Length of Visible Light 10h 53m
Length of Day
9h 54m
Full, 100% of the Moon is Illuminated
Jan 26
Full
Jan 26
Full
Feb 3
Last Quarter
Feb 10
New
Feb 17
First Quarter

Hourly Weather History & Observations

Time (EST) Temp. Windchill Dew Point Humidity Pressure Visibility Wind Dir Wind Speed Gust Speed Precip Events Conditions
12:54 AM 7.0 °F - 3.0 °F 84% 30.11 in - Calm Calm - 0.10 in   Unknown
1:54 AM 5.0 °F - -0.0 °F 80% 30.10 in - Calm Calm - 0.08 in   Unknown
2:54 AM 6.1 °F - 1.9 °F 83% 30.09 in - Calm Calm - 0.12 in   Unknown
3:54 AM 3.9 °F - -0.9 °F 80% 30.09 in - Calm Calm - 0.41 in   Unknown
4:54 AM 3.9 °F - -0.0 °F 84% 30.11 in - Calm Calm - 0.13 in   Unknown
5:54 AM 5.0 °F - 1.0 °F 84% 30.13 in - Calm Calm - 0.13 in   Unknown
6:54 AM 3.0 °F - -0.9 °F 84% 30.15 in - Calm Calm - 0.01 in   Unknown
7:54 AM 3.9 °F - -0.0 °F 84% 30.18 in - Calm Calm - N/A   Unknown
8:54 AM 12.0 °F - 9.0 °F 88% 30.19 in - Calm Calm - 0.54 in   Unknown
9:54 AM 17.1 °F 11.7 °F 10.0 °F 74% 30.21 in - North 3.5 mph - 0.20 in   Unknown
10:54 AM 19.0 °F 9.0 °F 5.0 °F 54% 30.22 in - NNE 8.1 mph 18.4 mph 0.05 in   Unknown
11:54 AM 19.9 °F 11.1 °F 5.0 °F 52% 30.21 in - Variable 6.9 mph - 0.28 in   Unknown
12:54 PM 23.0 °F 15.8 °F 5.0 °F 46% 30.18 in - Variable 5.8 mph - 0.29 in   Unknown
1:54 PM 26.1 °F 16.8 °F 5.0 °F 41% 30.17 in - NW 9.2 mph - 0.21 in   Unknown
2:54 PM 26.1 °F 16.8 °F 5.0 °F 41% 30.20 in - North 9.2 mph - 0.06 in   Unknown
3:54 PM 25.0 °F 17.1 °F 3.9 °F 41% 30.22 in - Variable 6.9 mph - 0.52 in   Unknown
4:54 PM 23.0 °F 13.1 °F 3.9 °F 44% 30.25 in - North 9.2 mph 19.6 mph 0.02 in   Unknown
5:54 PM 21.0 °F 11.4 °F 3.9 °F 48% 30.31 in - NNW 8.1 mph - N/A   Unknown
6:54 PM 19.9 °F 12.1 °F 3.9 °F 50% 30.32 in - Variable 5.8 mph - 0.06 in   Unknown
7:54 PM 19.0 °F - 3.9 °F 52% 30.34 in - Calm Calm - 0.02 in   Unknown
8:54 PM 19.0 °F 12.3 °F 3.9 °F 52% 30.35 in - Variable 4.6 mph - 0.03 in   Unknown
9:54 PM 18.0 °F 12.7 °F 5.0 °F 57% 30.38 in - Variable 3.5 mph - 0.04 in   Unknown
10:54 PM 16.0 °F - 5.0 °F 62% 30.40 in - Calm Calm - N/A   Unknown
11:54 PM 12.0 °F - 5.0 °F 73% 30.42 in - Calm Calm - 0.01 in   Unknown